Вернуться в каталог

FENGYUN 1C DEB

АктивенSSO
NORAD 33630·DEBRIS·🇨🇳 China

Запущен May 10, 1999 с Taiyuan Satellite Launch Center

Loading…

Ближайшие Пролёты (ближайшие 24 часа)

TLE

УстаревающийSource: Space-Track

Эпоха: Sep 8, 2026, 12:11 UTC

1 33630U 99025DDP 26251.50798403  .00000309  00000-0  15682-3 0  9999
2 33630  98.6267 354.9437 0133822  11.6278 348.7937 14.18128550682343

Отслеживайте FENGYUN 1C DEB в реальном времени с AllMySat

Download on the App Store